Weather History for Winter Haven, FL

Change the Weather History Date:

Thursday, September 5, 2013

  Actual Average Record
Temperature  
Mean Temperature 82 °F -  
Max Temperature 93 °F 91 °F 95 °F (1954)
Min Temperature 72 °F 73 °F 69 °F (1960)
Cooling Degree Days 18    
Growing Degree Days 32 (Base 50)    
Moisture  
Dew Point 71 °F    
Average Humidity 80    
Maximum Humidity 97    
Minimum Humidity 45    
Precipitation  
Precipitation 1.23 in - - ()
Sea Level Pressure  
Sea Level Pressure 30.07 in    
Wind  
Wind Speed 5 mph (NE)    
Max Wind Speed 23 mph    
Max Gust Speed 30 mph    
Visibility 8 miles    
Events Rain    
Averages and records for this station are not official NWS values.
T = Trace of Precipitation, MM = Missing Value Source: NWS Daily Summary

Daily Weather History Graph

Daily Weather History Graph

Search for Another Location

Airport:

Trip Planner

Search our weather history database for the weather conditions in past years. The results will help you decide how hot, cold, wet, or windy it might be!

Date:

Astronomy

Sep. 05, 2013 Rise Set
Actual Time 7:07 AM EDT 7:43 PM EDT
Civil Twilight 6:43 AM EDT 8:06 PM EDT
Nautical Twilight 6:15 AM EDT 8:34 PM EDT
Astronomical Twilight 5:47 AM EDT 9:02 PM EDT
Moon 7:12 AM EDT (9/5) 7:42 PM EDT (9/5)
Length of Visible Light 13h 23m
Length of Day
12h 35m
New Moon, 0% of the Moon is Illuminated
Sep 5
New Moon
Sep 12
First Quarter
Sep 19
Full
Sep 26
Last Quarter
Oct 4
New

Hourly Weather History & Observations

Time (EDT) Temp. Heat Index Dew Point Humidity Pressure Visibility Wind Dir Wind Speed Gust Speed Precip Events Conditions
12:53 AM 75.0 °F - 72.0 °F 90% 30.08 in 10.0 mi Calm Calm - N/A   Clear
1:53 AM 73.9 °F - 71.1 °F 91% 30.07 in 10.0 mi WNW 3.5 mph - N/A   Clear
2:53 AM 73.9 °F - 71.1 °F 91% 30.06 in 10.0 mi NNE 3.5 mph - N/A   Clear
3:53 AM 73.9 °F - 71.1 °F 91% 30.06 in 10.0 mi Calm Calm - N/A   Clear
4:53 AM 73.9 °F - 70.0 °F 87% 30.07 in 10.0 mi NE 4.6 mph - N/A   Clear
5:53 AM 73.9 °F - 70.0 °F 87% 30.07 in 10.0 mi NNE 4.6 mph - N/A   Clear
6:53 AM 75.0 °F - 71.1 °F 87% 30.08 in 10.0 mi ENE 3.5 mph - N/A   Clear
7:53 AM 75.9 °F - 72.0 °F 87% 30.09 in 10.0 mi NNE 4.6 mph - N/A   Clear
8:53 AM 77.0 °F - 72.0 °F 84% 30.11 in 10.0 mi NNE 3.5 mph - N/A   Clear
9:53 AM 82.0 °F 87.9 °F 73.9 °F 76% 30.11 in 10.0 mi ENE 4.6 mph - N/A   Clear
10:53 AM 84.9 °F 94.1 °F 75.9 °F 74% 30.12 in 10.0 mi East 9.2 mph - N/A   Clear
11:53 AM 86.0 °F 93.8 °F 73.9 °F 67% 30.12 in 10.0 mi East 8.1 mph - N/A   Clear
12:53 PM 88.0 °F 95.6 °F 73.0 °F 61% 30.10 in 10.0 mi East 5.8 mph - N/A   Clear
1:53 PM 89.1 °F 95.0 °F 71.1 °F 55% 30.08 in 10.0 mi East 3.5 mph - N/A   Clear
2:53 PM 90.0 °F 96.9 °F 72.0 °F 55% 30.06 in 10.0 mi NE 5.8 mph - N/A   Mostly Cloudy
3:53 PM 91.0 °F 97.6 °F 71.1 °F 52% 30.04 in 10.0 mi SE 5.8 mph - N/A   Clear
4:53 PM 93.0 °F 97.9 °F 69.1 °F 45% 30.01 in 10.0 mi ENE 4.6 mph - N/A   Clear
5:53 PM 91.0 °F 98.2 °F 72.0 °F 53% 30.02 in 10.0 mi ENE 8.1 mph - N/A   Mostly Cloudy
6:28 PM 79.0 °F - 72.0 °F 79% 30.06 in 2.0 mi NE 17.3 mph - 0.13 in Rain Rain
6:32 PM 77.0 °F - 72.0 °F 84% 30.05 in 0.8 mi East 23.0 mph 29.9 mph 0.32 in Rain Heavy Rain
6:49 PM 73.4 °F - 68.0 °F 83% 30.07 in 1.0 mi NW 16.1 mph - 0.69 in Rain Heavy Rain
6:53 PM 72.0 °F - 68.0 °F 87% 30.07 in 0.8 mi NW 15.0 mph - 0.77 in Rain Heavy Rain
7:04 PM 72.0 °F - 64.9 °F 78% 30.10 in 1.5 mi NNE 5.8 mph 16.1 mph 0.10 in Rain Heavy Rain
7:23 PM 72.0 °F - 71.1 °F 97% 30.08 in 0.8 mi NE 5.8 mph - 0.41 in Rain Heavy Rain
7:30 PM 72.0 °F - 71.1 °F 97% 30.07 in 1.8 mi North 8.1 mph - 0.45 in Rain Rain
7:33 PM 72.0 °F - 71.1 °F 97% 30.07 in 2.5 mi North 8.1 mph - 0.46 in Rain Rain
7:41 PM 73.9 °F - 71.1 °F 91% 30.05 in 7.0 mi NNW 4.6 mph - 0.46 in Rain Light Rain
7:53 PM 73.9 °F - 71.1 °F 91% 30.06 in 10.0 mi East 5.8 mph - 0.46 in   Mostly Cloudy
8:53 PM 75.0 °F - 71.1 °F 87% 30.06 in 10.0 mi Calm Calm - N/A   Mostly Cloudy
9:53 PM 77.0 °F - 73.0 °F 88% 30.08 in 10.0 mi ESE 4.6 mph - N/A   Clear
10:53 PM 75.9 °F - 73.0 °F 91% 30.08 in 10.0 mi SSE 4.6 mph - N/A   Clear
11:53 PM 77.0 °F - 71.1 °F 82% 30.07 in 10.0 mi ENE 3.5 mph - N/A   Clear